Location: Aubervilles
(48.9167°N, 2.3833°E)
Time: 16:06:45
(UTC+00:00)

Cosmos 1633 - Pass Details

Date: 03 February 2023
Orbit: 422 x 432 km, 82.5° (Epoch: 30 March)

Event Time Altitude Azimuth Distance (km) Brightness Sun altitude
Rises 18:58:34 0° 204° (SSW) 2,371 6.4 -21.2°
Reaches altitude 10° 19:00:40 10° 212° (SSW) 1,510 5.5 -21.5°
Maximum altitude 19:03:47 40° 284° (WNW) 642 3.6 -22.0°
Enters shadow 19:06:02 17° 349° (N) 1,181 4.6 -22.4°
